Scottsbluff, NE

1:11 PM MST on November 15, 2019 (GMT -0700)
Heilig

Weather History for KBFF - July, 2019

Change the Weather History Date:

Tuesday, July 16, 2019

  Actual Average Record
Temperature  
Mean Temperature 76 °F -  
Max Temperature 91 °F 91 °F 108 °F (2006)
Min Temperature 62 °F 59 °F 47 °F (1917)
Cooling Degree Days 12    
Growing Degree Days 26 (Base 50)    
Moisture  
Dew Point 32 °F    
Average Humidity 13    
Maximum Humidity 21    
Minimum Humidity 7    
Precipitation  
Precipitation 0.08 in - - ()
Sea Level Pressure  
Sea Level Pressure 29.83 in    
Wind  
Wind Speed 9 mph (SE)    
Max Wind Speed 17 mph    
Max Gust Speed 40 mph    
Visibility 10 miles    
Events Rain , Thunderstorm    
Averages and records for this station are not official NWS values.
T = Trace of Precipitation, MM = Missing Value Source: NWS Daily Summary

Daily Weather History Graph

Daily Weather History Graph

Search for Another Location

Airport or City:

Astronomy

Jul. 16, 2019 Rise Set
Actual Time 5:33 AM MDT 8:27 PM MDT
Civil Twilight 5:00 AM MDT 9:00 PM MDT
Nautical Twilight 4:18 AM MDT 9:42 PM MDT
Astronomical Twilight 3:29 AM MDT 10:30 PM MDT
Moon 8:35 PM MDT (7/16) 5:13 AM MDT (7/16)
Length of Visible Light 16h 00m
Length of Day
14h 54m
Full, 100% of the Moon is Illuminated
Jul 16
Full
Jul 16
Full
Jul 24
Last Quarter
Jul 31
New
Aug 7
First Quarter

Hourly Weather History & Observations

Time (MDT) Temp. Dew Point Humidity Pressure Visibility Wind Dir Wind Speed Gust Speed Precip Events Conditions
12:53 AM 64.0 °F - N/A% 29.90 in 10.0 mi East 4.6 mph - N/A   Clear
1:53 AM 64.0 °F - N/A% 29.89 in 10.0 mi ESE 5.8 mph - N/A   Clear
2:53 AM 63.0 °F - N/A% 29.90 in 10.0 mi NW 5.8 mph - N/A   Clear
3:53 AM 63.0 °F - N/A% 29.90 in 10.0 mi North 10.4 mph - N/A   Clear
4:53 AM 62.1 °F - N/A% 29.87 in 10.0 mi ESE 8.1 mph - N/A   Clear
5:53 AM 62.1 °F - N/A% 29.88 in 10.0 mi SE 8.1 mph - N/A   Clear
6:53 AM 64.0 °F - N/A% 29.91 in 10.0 mi ESE 6.9 mph - N/A   Clear
7:53 AM 66.9 °F - N/A% 29.92 in 10.0 mi Variable 3.5 mph - N/A   Clear
8:53 AM 72.0 °F - N/A% 29.90 in 10.0 mi SE 8.1 mph - N/A   Clear
9:53 AM 77.0 °F - N/A% 29.88 in 10.0 mi SE 10.4 mph - N/A   Clear
10:53 AM 81.0 °F - N/A% 29.86 in 10.0 mi SSE 12.7 mph - N/A   Clear
11:53 AM 84.9 °F - N/A% 29.83 in 10.0 mi SE 12.7 mph 18.4 mph N/A   Clear
12:53 PM 88.0 °F - N/A% 29.81 in 10.0 mi South 11.5 mph - N/A   Clear
1:53 PM 91.0 °F - N/A% 29.78 in 10.0 mi South 11.5 mph 20.7 mph N/A   Clear
2:53 PM 88.0 °F - N/A% 29.76 in 10.0 mi SSE 8.1 mph - N/A   Clear
3:53 PM 82.9 °F - N/A% 29.76 in 10.0 mi ESE 6.9 mph - N/A   Clear
4:15 PM 88.0 °F - N/A% 29.90 in 10.0 mi South 17.3 mph 40.3 mph N/A Thunderstorm Partly Cloudy
4:39 PM 84.0 °F - N/A% 29.92 in 10.0 mi SW 15.0 mph 27.6 mph 0.00 in Rain , Thunderstorm Light Thunderstorms and Rain
4:48 PM 77.0 °F - N/A% 29.90 in 4.0 mi ESE 8.1 mph 25.3 mph 0.03 in Rain , Thunderstorm Thunderstorms and Rain
4:53 PM 81.0 °F - N/A% 29.76 in 5.0 mi Variable 6.9 mph 24.2 mph 0.04 in Rain , Thunderstorm Light Thunderstorms and Rain
5:28 PM 81.0 °F - N/A% 29.90 in 10.0 mi ESE 9.2 mph - 0.03 in Thunderstorm Scattered Clouds
5:44 PM 80.1 °F - N/A% 29.89 in 10.0 mi South 11.5 mph 17.3 mph 0.03 in   Clear
5:53 PM 79.0 °F - N/A% 29.76 in 10.0 mi SSE 11.5 mph - 0.03 in   Clear
6:53 PM 78.1 °F - N/A% 29.74 in 10.0 mi SE 10.4 mph - N/A   Clear
7:53 PM 73.9 °F - N/A% 29.75 in 10.0 mi ESE 9.2 mph - N/A   Clear
8:53 PM 71.1 °F - N/A% 29.73 in 10.0 mi ESE 4.6 mph - N/A   Clear
9:53 PM 71.1 °F - N/A% 29.72 in 10.0 mi ESE 11.5 mph - N/A   Clear
10:53 PM 72.0 °F - N/A% 29.70 in 10.0 mi ESE 9.2 mph - N/A   Clear
11:53 PM 73.0 °F - N/A% 29.68 in 10.0 mi SSE 16.1 mph 23.0 mph N/A   Clear